Regional Weather Roundup
Issued by NWS

Home | Current Version | Previous Version | Text Only | Print | Product List | Glossary Off
Versions: 1 2 3 4 5 6 7 8 9 10 11 12 13 14 15 16 17 18 19 20 21 22 23 24 25 26 27 28 29 30 31 32 33 34 35 36 37 38 39 40 41 42 43 44 45 46 47 48 49 50

707
ASUS43 KIND 222200
RWRIN

WEATHER ROUNDUP FOR INDIANA
NATIONAL WEATHER SERVICE INDIANAPOLIS IN
600 PM EDT TUE MAY 22 2018

NOTE: "FAIR" INDICATES FEW OR NO CLOUDS BELOW 12,000 FEET WITH NO
SIGNIFICANT WEATHER AND/OR OBSTRUCTIONS TO VISIBILITY.

* - STATION DOES NOT REPORT WEATHER SUCH AS PRECIPITATION OR FOG.

+ - STATION NOT QUALITY CONTROLLED BY THE NATIONAL WEATHER SERVICE.
    USE DATA WITH CAUTION...ESPECIALLY DEWPOINT AND RELATIVE
    HUMIDITY OBSERVATIONS.

INZ001>003-010>013-019-020-222300-
NORTHWEST INDIANA

CITY           SKY/WX    TMP DP  RH WIND       PRES   REMARKS
GARY /AIRPORT/ PTSUNNY   55  52  88 VRB5      30.08S
MICHIGAN CITY+ CLOUDY    54  52  94 N3        30.07F
MONTICELLO +   PTSUNNY   76  59  54 N15       30.00S

$$

LMZ046-743>745-222300-
SOUTHERN LAKE MICHIGAN

STATION/POSITION TIME  TEMP    WIND        PRES    WAVE
                       AIR SEA DIR/SP/G            HT
                 (UTC) (F)     (DEG/KT/KT) (MB)    (FT)
BURNS HARBOR     2140   51      50/ 10/ 11 1018.6S
MICHIGAN CITY    2130   48      20/  7/  9   N/A
5NW MICH CITY    2150   48 54   60/  6/  8   N/A     1

$$

INZ004-005-014>016-021>024-222300-
NORTH CENTRAL INDIANA

CITY           SKY/WX    TMP DP  RH WIND       PRES   REMARKS
ELKHART        CLOUDY    66  55  68 N12       30.04S
GOSHEN         CLOUDY    66  58  75 NW15      30.03R
SOUTH BEND     CLOUDY    61  55  81 NW13      30.07R

$$

INZ006>009-017-018-025>027-222300-
NORTHEAST INDIANA

CITY           SKY/WX    TMP DP  RH WIND       PRES   REMARKS
ANGOLA *+      CLOUDY    68  57  68 W8G18     30.00S
FORT WAYNE     FAIR      75  62  64 NW16      29.99R

$$

INZ028-029-035-036-043>045-051>053-222300-
WEST CENTRAL INDIANA

CITY           SKY/WX    TMP DP  RH WIND       PRES   REMARKS
CRAWFORDSVL +  FAIR      79  58  48 NW15      29.99S
GREENCASTLE +  FAIR      81  59  47 NW3       30.00R
LAFAYETTE      FAIR      79  59  50 NW10      29.98F
TERRE HAUTE    FAIR      85  60  42 NW13      29.98S

$$

INZ030>032-037>040-046>048-054>057-064-065-222300-
CENTRAL INDIANA

CITY           SKY/WX    TMP DP  RH WIND       PRES   REMARKS
ANDERSON       FAIR      81  61  50 NW16G23   29.99
COLUMBUS       SUNNY     82  63  51 W7        29.97S
INDIANAPOLIS   PTSUNNY   83  60  45 W14       29.98S
-EAGLE CREEK   FAIR      82  58  43 NW13      29.97S
KOKOMO +       FAIR      78  61  55 N14       30.00S
MT COMFORT *+  FAIR      79  68  69 N13       29.98S
SHELBYVILLE    FAIR      84  63  49 NW16      29.96S

$$

INZ033-034-041-042-049-050-058-059-222300-
EAST CENTRAL INDIANA

CITY           SKY/WX    TMP DP  RH WIND       PRES   REMARKS
MUNCIE         FAIR      81  59  47 NW16      29.97S
RICHMOND +     PTSUNNY   72  68  88 N7        29.99S

$$

INZ060-061-067>069-081>083-085>088-222300-
SOUTHWEST INDIANA

CITY           SKY/WX    TMP DP  RH WIND       PRES   REMARKS
EVANSVILLE     FAIR      86  64  47 W9        29.97S
HUNTINGBURG +  FAIR      85  69  58 NW7       29.97F

$$

INZ062-063-066-070>080-084-089>092-222300-
SOUTH CENTRAL AND SOUTHEAST INDIANA

CITY           SKY/WX    TMP DP  RH WIND       PRES   REMARKS
BLOOMINGTON    FAIR      85  61  44 NW7       29.98S
FRENCH LICK *+ FAIR      84  50  30 W10G17    29.98S
SEYMOUR +      FAIR      86  66  51 NW9       29.96S

$$





USA.gov is the U.S. government's official web portal to all federal, state and local government web resources and services.